Content
SEND FEEDBACK

Daily
Averages
Monthly
Summary
United States of America

MADERA, CALIFORNIA


Home > North America > United States > California
Elevation: 253 feet     Latitude: 36 59N     Longitude: 120 06W

WEATHER
 
SELECT A DAY
Number of Records: 150,891;   Date Range: 9/2/98 - 7/29/14
 
SHARE

PRINT THIS DATA

[ ← Previous Day ]
WEATHER ALMANAC - MAY 22, 2013
[ Next Day → ]
[ °C ]   °F
Weather ElementAverageHighLow
Temperature61 °F71.6 °F (2:42 pm)50 °F (4:53 am)
Dewpoint23.9 °F41 °F (3:53 am)9 °F (6:53 pm)
Humidity29 %68 % (3:53 am)9 % (3:53 pm)
Barometer29.91 in29.96 in (9:53 am)29.85 in (5:53 pm)
Wind Speed15 mph21.9 mph (10:07 am)
Wind Gust29.9 mph (8:53 am)
Weather ElementAverage
Visibility10 mi
Wind DirectionWSW (240 °)

Weather ElementTotal
Precipitation---
Heating Degree Days4.2 (Base 65)
Growing Degree Days10.8 (Base 50)
Averaged from 28 records on May 22, 2013
WEATHER CONDITIONS BREAKOUT
WIND DIRECTION BREAKOUT
WEATHER BY HOUR - MAY 22, 2013
[ °C ]   °F
Local TimeTemperatureDewpointHumidityBarometerVisibilityWind DirectionWind SpeedGust SpeedPrecipitationEventsConditions
1:53 AM53.1 °F39.0 °F59 %29.88 in10.0 miNorthClear
2:53 AM54.0 °F39.9 °F59 %29.88 in10.0 miNorthClear
3:53 AM51.1 °F41.0 °F68 %29.89 in10.0 miNorthClear
4:53 AM50.0 °F39.9 °F68 %29.88 in10.0 miNorthClear
5:53 AM52.0 °F30.0 °F43 %29.89 in10.0 miWNW (300°)12.7 mph24.2 mphClear
6:53 AM52.0 °F28.0 °F40 %29.91 in10.0 miNW (310°)13.8 mph21.9 mphClear
7:43 AM53.6 °F26.6 °F35 %29.94 in10.0 miNW (310°)18.4 mph28.8 mphPartly Cloudy
7:53 AM54.0 °F26.1 °F34 %29.94 in10.0 miNW (310°)19.6 mph26.5 mphPartly Cloudy
8:53 AM57.0 °F25.0 °F29 %29.95 in10.0 miNW (320°)19.6 mph29.9 mphPartly Cloudy
9:53 AM60.1 °F24.1 °F25 %29.96 in10.0 miWNW (300°)18.4 mph26.5 mphPartly Cloudy
10:07 AM60.8 °F21.2 °F22 %29.96 in10.0 miNW (310°)21.9 mph28.8 mphPartly Cloudy
10:53 AM62.1 °F21.9 °F21 %29.96 in10.0 miNW (310°)17.3 mph25.3 mphClear
11:08 AM62.6 °F21.2 °F20 %29.96 in10.0 miNW (310°)18.4 mph27.6 mphPartly Cloudy
11:53 AM64.9 °F21.9 °F19 %29.96 in10.0 miWNW (300°)13.8 mph25.3 mphClear
12:43 PM68.0 °F17.6 °F15 %29.94 in10.0 miNW (310°)13.8 mph25.3 mphPartly Cloudy
12:53 PM68.0 °F21.0 °F17 %29.94 in10.0 miWNW (290°)16.1 mph20.7 mphPartly Cloudy
1:53 PM70.0 °F16.0 °F13 %29.92 in10.0 miWNW (290°)11.5 mph20.7 mphClear
2:42 PM71.6 °F15.8 °F12 %29.91 in10.0 miWNW (290°)13.8 mph24.2 mphPartly Cloudy
2:53 PM71.1 °F15.1 °F12 %29.90 in10.0 miWNW (300°)18.4 mph25.3 mphClear
3:53 PM71.1 °F10.0 °F9 %29.88 in10.0 miNW (310°)13.8 mph19.6 mphClear
4:53 PM71.1 °F12.9 °F11 %29.86 in10.0 miNW (320°)15.0 mph18.4 mphClear
5:53 PM71.1 °F14.0 °F11 %29.85 in10.0 miNW (310°)15.0 mphClear
6:53 PM70.0 °F9.0 °F9 %29.85 in10.0 miNNW (330°)13.8 mphClear
7:53 PM64.9 °F14.0 °F14 %29.85 in10.0 miNNW (330°)6.9 mphClear
8:53 PM55.9 °F21.9 °F27 %29.86 in10.0 miWest (280°)5.8 mphClear
9:53 PM57.9 °F28.9 °F33 %29.87 in10.0 miWest (280°)11.5 mphClear
10:53 PM57.0 °F33.1 °F40 %29.88 in10.0 miNorthClear
11:53 PM53.1 °F34.0 °F48 %29.89 in10.0 miNorthClear
Hourly data recorded from KMAE, located miles away from Madera, California







STORIES FROM OUR PARTNERS